Weather in Leninkent

Russia / Republic of Dagestan     42°58′13″N   47°21′12″E
temp.,
°C
wind,
m/s
gust,
m/s
humid.,
%
clouds,
%
prec.,
mm/h
press.,
hPa
HPBL,
m
8 march, mon
mon800:00−1se465930 0.0 1023307
03:00−1ese356115 0.0 1022178
06:000sse23670 0.0 1022106
09:00+2se68551 0.0 1020843
12:00+4ese5661100 0.0 1019965
15:00+3ese4573100 0.0 1016629
18:00+2e2391100 0.1 1017278
21:00+2nnw1196100 1.3 1018159
9 march, tue
tue900:00+1nw4595100 0.8 1018355
03:00+1nw2396100 1.2 1018221
06:00+1nw1196100 0.4 1017111
09:00+2nne1185100 0.4 1018364
12:00+5nne116461 0.0 1017889
15:00+6e225237 0.0 10161160
18:00+5ese346331 0.0 1017247
21:00+4s227358 0.0 101934
10 march, wed
wed1000:00+3ssw127212 0.0 102022
03:00+1nnw249639 0.4 1021230
06:00+1w2389100 0.7 1023212
09:00+3wnw2466100 0.7 1023695
12:00+6nnw555195 0.0 10231347
15:00+6nnw454597 0.1 10221377
18:00+3ene3359100 0.0 1023751
21:00+2ene237194 0.1 1024383
11 march, thu
thu1100:000e2394100 0.3 1023202
03:000ne2479100 1.1 1022525
06:00−1ne3583100 0.6 1022538
09:00−1ne4696100 3.3 1023405
12:00−1ene6897100 3.0 1022576
15:00−2ene7996100 5.9 1021667
18:00−4ene5894100 2.3 1022596
21:00−4ne3597100 4.4 1023309
12 march, fri
fri1200:00−4ene4797100 3.0 1022479
03:00−4ne4697100 6.5 1022420
06:00−5ene4897100 3.2 1024548
09:00−4ene5897100 5.6 1025564
12:00−4ne6897100 3.2 1025604
15:00−4ne6897100 6.3 1027583
18:00−6nne3697100 2.1 1029320
21:00−7nnw2397100 3.3 1032103